554  
ASUS42 KCHS 021325  
RWRCHS  
 
REGIONAL WEATHER ROUNDUP  
NATIONAL WEATHER SERVICE CHARLESTON SC  
800 AM EST FRI DEC 02 2022  
 
NOTE: "FAIR" INDICATES FEW OR NO CLOUDS BELOW 12,000 FEET WITH NO  
SIGNIFICANT WEATHER AND/OR S TO VISIBILITY
.  
 
NOT ALL STATIONS ARE QUALITY CONTROLLED. USE DATA WITH CAUTION,  
ESPECIALLY DEWPOINT OBSERVATIONS.  
 
SCZ027-030-031-034>040-042>050-021400-   
..SOUTHEAST SOUTH CAROLINA
 
 
 
CITY SKY/WX TMP DP RH WIND PRES REMARKS
 
N CHARLESTON PTCLDY 45 29 53 NE12 30.50R  
WATERFRONT PRK N/A 45 34 65 N13 30.35R  
MOUNT PLEASANT PTSUNNY 45 34 65 N5G12 30.50R  
JOHNS ISLAND FAIR 46 34 61 N12 30.49S  
PINOPOLIS N/A 45 34 65 NE10 N/A  
MONCKS CORNER FAIR 43 27 52 NE6 30.52R  
SUMMERVILLE FAIR 41 37 87 N7 30.50S  
BEAUFORT MCAS CLEAR 46 33 60 NE9 30.48R  
BEAUFORT ARPT FAIR 46 34 61 NE13 30.48R  
HILTON HEAD IS CLEAR 50 39 66 NE14 30.47S  
WALTERBORO SUNNY 43 28 56 NE8 30.51S  
ALLENDALE FAIR 41 28 60 CALM 30.49S  
   
..SOUTHERN MIDLANDS AND PEE DEE
 
 
 
CITY SKY/WX TMP DP RH WIND PRES REMARKS
 
GEORGETOWN FAIR 43 32 65 N8 30.52R  
KINGSTREE FAIR 37 27 65 CALM 30.54R  
ORANGEBURG CLEAR 39 27 62 NE7 30.52R WCI 34  
BARNWELL FAIR 39 30 70 NE7 30.51R WCI 34  
AIKEN CLOUDY 39 28 63 NE7 30.52R WCI 34  
MANNING FAIR 36 27 69 NE5 30.54R WCI 32  
COLUMBIA PTCLDY 32 29 88 CALM 30.54R  
SUMTER PTCLDY 34 27 74 N7 30.53R WCI 28  
FLORENCE CLEAR 36 26 67 N5 30.55R WCI 32  
MYRTLE BEACH CLEAR 42 27 55 N10 30.53R  
N MYRTLE BEACH CLEAR 41 28 60 NE10 30.52R  
 

 
 
GAZ063-065-086>088-099>101-113>116-118-119-134>141-150-021400-   
..SOUTHEAST GEORGIA
 
 
 
CITY SKY/WX TMP DP RH WIND PRES REMARKS
 
SAVANNAH ARPT PTCLDY 48 31 51 N5 30.47R  
HUNTER AAF CLEAR 45 35 67 N5 30.43R  
FORT STEWART PTCLDY 44 31 61 N8 30.42S  
STATESBORO PTCLDY 42 29 62 NE3 30.49R  
SYLVANIA SUNNY 42 31 63 NE3 30.49R  
CLAXTON FAIR 46 32 59 E5 30.47S  
MILLEN FAIR 42 27 55 NE8 30.50R  
METTER FAIR 44 28 54 NE7 30.47S  
REIDSVILLE FAIR 46 31 56 CALM 30.45S  
   
..CSRA, CENTRAL AND FAR SOUTHEAST GEORGIA
 
 
 
CITY SKY/WX TMP DP RH WIND PRES REMARKS
 
THOMSON MOCLDY 33 32 94 CALM 30.51S  
AUGUSTA-BUSH MOCLDY 39 34 82 N6 30.51R WCI 35  
AUGUSTA-DANIEL CLOUDY 42 27 55 N5 30.51R  
SWAINSBORO FAIR 41 30 65 E7 30.49R  
VIDALIA PTCLDY 46 32 57 NE7 30.46S  
EASTMAN FAIR 43 28 56 E5 30.47R  
HAZLEHURST FAIR 44 31 60 E7 30.44S  
ALMA CLEAR 47 30 51 N5 30.43R  
WAYCROSS CLEAR 47 33 58 NE6 30.44R  
JESUP FAIR 46 34 61 CALM 30.47R  
BAXLEY FAIR 45 30 57 NE7 30.44S  
BRUNSWICK CLEAR 49 40 71 N5 30.43R  
SAINT SIMONS CLEAR 54 46 74 N8 30.41R  
 

 
 
SCZ027-028-034-036>038-045-046-048>050-GAZ119-141-021400-   
..LAKE AND SUPPLEMENTAL COASTAL OBSERVATIONS
 
 
 
STATION/POSITION TIME TEMP WIND PRES WAVE SWELL
 
AIR SEA DIR/SP/G HT/PER HT/PER/DIR  
(UTC) (F) (DEG/KT/KT) (MB) (FT/S) (FT/S/D)  
WINYAH BAY 1245 43 10/ 5 1032.0S  
LAKE MURRAY 1250 40 CALM / 2 N/A  
CHRLSTN HARBOR 1248 49 61 350/ 8/ 13 1031.2R  
ACE BASIN NERRS 1245 44 360/ 3 1033.0S  
FORT PULASKI 1248 51 61 40/ 10/ 12 1031.2R  
SAPELO ISLAND 1300 51 20/ 11 1030.0  
 

 
 
ANZ835-935-AMZ111-154-330-350-352-354-370-450-454-472-021400-   
..C-MAN AND BUOY OBSERVATIONS
 
 
 
STATION/POSITION TIME TEMP WIND PRES WAVE SWELL
 
AIR SEA DIR/SP/G HT/PER HT/PER/DIR  
(UTC) (F) (DEG/KT/KT) (MB) (FT/S) (FT/S/D)  
BUOY 41004 1310 69 74 110/ 12/ 16 1031.2  
BUOY 41008 1250 63 66 30/ 19/ 23 1028.4R 5/ 5 2/ 80/ 8  
FOLLY BEACH CMAN 1300 48 360/ 11/ 14 1032.6R  
CHAS PILOT BUOY 1208 57 69 20/ 21/ 29 1030.6R  
CHAS PILOT WAVE 1204 N/A 4/ 6  
CAPERS NEARSHORE 1208 51 61 20/ 17/ 23 1031.6R  
CAPERS NS WAVE 1235 60 N/A 3/ 4  
FRIPP NEARSHORE 1208 55 61 30/ 17/ 25 1030.5R  
 
 
STATION/POSITION TIME TEMP WIND PRES WAVE SWELL
 
AIR SEA DIR/SP/G HT/PER HT/PER/DIR  
(UTC) (F) (DEG/KT/KT) (MB) (FT/S) (FT/S/D)  
5E ST. MARYS GA 1230 61 64 N/A 4/ 5  
FRYING PAN BUOY 1310 66 71 90/ 8/ 12 1032.2  
BUOY 41025 1310 74 20/ 14/ 19 1033.6  
CAPE LOOKOUT NC 1300 49 10/ 10/ 12 1034.3R  
BUOY 41002 1310 67 74 80/ 16/ 21 1029.3  
BUOY 41010 1310 73 78 80/ 17/ 23 1027.6  
ST AUGUSTINE FL 1300 68 66 70/ 5/ 5 1028.5R  
 

 
 
 
CLICK HERE TO GO TO PREVIOUS BULLETINS.

The Nexlab SC Page
The Nexlab GA Page Main Text Page